Location: Unspecified
(0.0000°N, 0.0000°E)
Time: 07:48:27
(UTC+00:00)

Vanguard 3 - All Passes

Search period start: 01 August 2015 00:00
Search period end: 11 August 2015 00:00
Orbit: 508 x 3270 km, 33.3° (Epoch: 31 July)

Date Brightness Start Highest point End Pass type
(mag) Time Alt. Az. Time Alt. Az. Time Alt. Az.
01 Aug - 03:12:14 10° SSW 03:23:59 28° SSE 03:39:53 10° E visible
01 Aug - 05:24:14 10° SW 05:42:06 69° SE 06:01:25 10° ENE visible
01 Aug - 07:40:25 10° WSW 08:00:00 57° NW 08:15:58 10° NE daylight
01 Aug - 10:04:51 10° WNW 10:17:40 21° NNW 10:26:42 10° NNE daylight
01 Aug - 17:04:22 10° NNW 17:07:19 18° NNE 17:09:59 10° ENE daylight
01 Aug - 19:15:41 10° W 19:18:56 29° SSW 19:22:35 10° SSE visible
02 Aug - 02:00:25 10° S 02:07:38 17° SSE 02:17:51 10° ESE visible
02 Aug - 04:10:27 10° SW 04:25:31 48° SE 04:44:34 10° ENE visible
02 Aug - 06:24:13 10° WSW 06:43:22 80° NW 07:01:52 10° NE daylight
02 Aug - 08:44:01 10° W 09:01:21 34° NNW 09:14:26 10° NNE daylight
02 Aug - 11:16:11 10° NW 11:19:45 11° NNW 11:22:06 10° N daylight
02 Aug - 18:02:20 10° NW 18:06:18 85° NE 18:10:01 10° SE daylight
03 Aug - 02:57:38 10° SSW 03:09:16 31° SSE 03:25:38 10° E visible
03 Aug - 05:09:26 10° SW 05:26:43 76° SE 05:46:35 10° ENE visible
03 Aug - 07:25:46 10° WSW 07:44:45 51° NW 08:01:09 10° NE daylight
03 Aug - 09:50:58 10° WNW 10:03:18 20° NNW 10:12:13 10° NNE daylight
03 Aug - 16:49:26 10° NNW 16:53:33 28° NNE 16:56:52 10° E daylight
03 Aug - 19:02:26 10° W 19:05:07 18° SSW 19:07:51 10° SSE visible
04 Aug - 01:45:59 10° S 01:53:22 18° SSE 02:04:03 10° ESE visible
04 Aug - 03:55:46 10° SW 04:10:21 54° SE 04:29:49 10° ENE visible
04 Aug - 06:09:31 10° WSW 06:27:58 71° NW 06:46:55 10° NE daylight
04 Aug - 08:29:47 10° W 08:46:33 31° NNW 08:59:43 10° NNE daylight
04 Aug - 11:02:17 10° NNW 11:05:52 11° NNW 11:08:21 10° N daylight
04 Aug - 15:36:51 10° NNW 15:40:05 15° NNE 15:42:49 10° ENE daylight
04 Aug - 17:48:15 10° WNW 17:52:25 58° SW 17:56:01 10° SE daylight
05 Aug - 02:43:05 10° SSW 02:54:29 35° SE 03:11:09 10° E visible
05 Aug - 04:54:47 10° SW 05:11:19 85° SE 05:31:34 10° NE visible
05 Aug - 07:11:19 10° W 07:29:36 45° NNW 07:46:13 10° NE daylight
05 Aug - 09:37:13 10° WNW 09:49:00 18° NNW 09:57:48 10° NNE daylight
05 Aug - 14:25:09 10° N 14:25:52 10° NNE 14:26:44 10° NNE daylight
05 Aug - 16:34:40 10° NW 16:39:45 45° NNE 16:43:28 10° ESE daylight
05 Aug - 18:49:42 10° WSW 18:51:15 12° SSW 18:52:40 10° S visible
06 Aug - 01:31:32 10° S 01:39:01 20° SSE 01:50:06 10° ESE visible
06 Aug - 03:41:11 10° SW 03:55:09 60° SE 04:14:51 10° ENE visible
06 Aug - 05:55:00 10° WSW 06:12:38 64° NW 06:31:48 10° NE daylight
06 Aug - 08:15:46 10° W 08:31:50 28° NNW 08:44:56 10° NNE daylight
06 Aug - 10:47:44 10° NNW 10:52:01 11° NNW 10:55:16 10° N daylight
06 Aug - 15:21:12 10° NNW 15:26:23 23° NNE 15:30:10 10° ENE daylight
06 Aug - 17:34:17 10° WNW 17:38:30 37° SW 17:41:55 10° SSE daylight
07 Aug - 02:28:35 10° SSW 02:39:37 39° SE 02:56:27 10° E visible
07 Aug - 04:40:16 10° SW 04:55:59 87° NW 05:16:21 10° NE visible
07 Aug - 06:57:05 10° W 07:14:33 40° NNW 07:31:09 10° NNE daylight
07 Aug - 09:23:30 10° NW 09:34:47 17° NNW 09:43:28 10° NNE daylight
07 Aug - 14:07:31 10° NNW 14:12:14 16° NNE 14:15:59 10° NE daylight
07 Aug - 16:19:58 10° NW 16:25:54 71° NNE 16:29:52 10° ESE daylight
08 Aug - 01:17:05 10° S 01:24:35 22° SE 01:35:58 10° E visible
08 Aug - 03:26:43 10° SW 03:39:58 68° SE 03:59:42 10° ENE visible
08 Aug - 05:40:40 10° WSW 05:57:24 56° NNW 06:16:32 10° NE visible
08 Aug - 08:01:56 10° WNW 08:17:13 25° NNW 08:30:08 10° NNE daylight
08 Aug - 10:32:44 10° NNW 10:38:12 12° N 10:42:36 10° N daylight
08 Aug - 12:53:10 10° NNW 12:57:15 13° N 13:00:49 10° NNE daylight
08 Aug - 15:05:49 10° NW 15:12:38 34° NNE 15:17:04 10° E daylight
08 Aug - 17:20:23 10° W 17:24:29 26° SW 17:27:42 10° SSE daylight
09 Aug - 02:14:10 10° SSW 02:24:44 44° SE 02:41:34 10° ENE visible
09 Aug - 04:25:54 10° WSW 04:40:43 78° NW 05:00:59 10° NE visible
09 Aug - 06:43:05 10° W 06:59:37 36° NNW 07:16:00 10° NNE daylight
09 Aug - 09:09:45 10° NW 09:20:39 16° NNW 09:29:19 10° NNE daylight
09 Aug - 11:36:55 10° NNW 11:41:18 12° N 11:45:12 10° NNE daylight
09 Aug - 13:51:25 10° NNW 13:58:31 22° NNE 14:03:30 10° ENE daylight
09 Aug - 16:05:19 10° WNW 16:11:55 78° SW 16:16:07 10° SE daylight
10 Aug - 01:02:39 10° SSW 01:10:06 24° SE 01:21:40 10° E visible
10 Aug - 03:12:22 10° SW 03:24:50 76° SE 03:44:22 10° ENE visible
10 Aug - 05:26:31 10° WSW 05:42:18 50° NNW 06:01:08 10° NE visible
10 Aug - 07:48:16 10° WNW 08:02:44 23° NNW 08:15:20 10° NNE daylight
10 Aug - 10:17:27 10° NNW 10:24:21 13° N 10:30:06 10° NNE daylight
10 Aug - 12:36:25 10° NNW 12:43:32 17° NNE 12:48:59 10° NE daylight
10 Aug - 14:50:31 10° NW 14:58:47 49° NNE 15:03:42 10° ESE daylight
10 Aug - 17:06:38 10° W 17:10:25 19° SW 17:13:19 10° S daylight
10 Aug - 23:54:32 10° SSE 23:55:41 10° SE 23:57:49 10° SE night (unlit)
